Location: Unspecified
(28.9957°N, 0.0000°E)
Time: 10:44:26
(UTC+00:00)

CZ-6A DEB - Visible Passes

Search period start: 04 April 2026 00:00
Search period end: 14 April 2026 00:00
Orbit: 821 x 996 km, 98.9° (Epoch: 28 March)

Date Brightness Start Highest point End Pass type
(mag) Time Alt. Az. Time Alt. Az. Time Alt. Az.
4 Apr ? 02:32:41 10° NE 02:37:40 27° E 02:37:40 27° E visible
4 Apr ? 04:14:03 10° N 04:19:33 35° WNW 04:20:55 31° W visible
5 Apr ? 02:37:37 10° NE 02:42:55 30° E 02:42:57 30° E visible
5 Apr ? 04:19:17 10° N 04:24:37 31° WNW 04:26:11 28° W visible
6 Apr ? 02:42:35 10° NE 02:48:03 34° E 02:48:14 33° ESE visible
6 Apr ? 04:24:33 10° NNW 04:29:40 28° WNW 04:31:28 24° W visible
7 Apr ? 02:47:33 10° NNE 02:53:10 37° E 02:53:30 37° ESE visible
7 Apr ? 04:29:50 10° NNW 04:34:42 25° WNW 04:36:44 21° W visible
8 Apr ? 02:52:33 10° NNE 02:58:18 42° E 02:58:46 41° ESE visible
8 Apr ? 04:35:08 10° NNW 04:39:45 23° WNW 04:42:00 18° W visible
9 Apr ? 02:57:34 10° NNE 03:03:24 47° E 03:04:02 45° ESE visible
9 Apr ? 04:40:29 10° NNW 04:44:46 20° WNW 04:47:16 16° W visible
10 Apr ? 03:02:35 10° NNE 03:08:31 52° E 03:09:17 49° SE visible
10 Apr ? 04:45:52 10° NNW 04:49:48 18° WNW 04:52:31 13° W visible
11 Apr ? 03:07:38 10° NNE 03:13:37 59° E 03:14:32 53° SE visible
11 Apr ? 04:51:19 10° NNW 04:54:49 16° WNW 04:57:46 11° W visible
12 Apr ? 03:12:42 10° NNE 03:18:43 66° ESE 03:19:47 55° SSE visible
12 Apr ? 04:56:49 10° NNW 04:59:50 14° WNW 05:02:46 10° W visible
13 Apr ? 03:17:46 10° NNE 03:23:48 74° ESE 03:25:01 56° SSE visible
13 Apr ? 05:02:28 10° NW 05:04:50 13° WNW 05:07:10 10° W visible
